Time,TemperatureF,DewpointF,PressureIn,WindDirection,WindDirectionDegrees,WindSpeedMPH,WindSpeedGustMPH,Humidity,HourlyPrecipIn,Conditions,Clouds,dailyrainin,SoftwareType,DateUTC
2013-04-06 00:02:00,55.8,47.3,30.08,SSE,155,6.0,6.0,73,0.00,,,0.00,Wunderground v.1.15,2013-04-06 05:02:00,
2013-04-06 00:08:00,55.7,47.2,30.09,SSE,156,5.0,7.0,73,0.00,,,0.00,Wunderground v.1.15,2013-04-06 05:08:00,
2013-04-06 00:14:00,55.7,47.2,30.09,SE,145,5.0,7.0,73,0.00,,,0.00,Wunderground v.1.15,2013-04-06 05:14:00,
2013-04-06 00:20:00,55.7,47.2,30.08,SSE,156,6.0,10.0,73,0.00,,,0.00,Wunderground v.1.15,2013-04-06 05:20:00,
2013-04-06 00:26:00,55.9,47.7,30.08,SSE,160,8.0,10.0,74,0.00,,,0.00,Wunderground v.1.15,2013-04-06 05:26:00,
2013-04-06 00:32:00,55.8,48.0,30.08,SE,146,10.0,10.0,75,0.00,,,0.00,Wunderground v.1.15,2013-04-06 05:32:00,
2013-04-06 00:38:00,55.3,48.2,30.08,SE,135,11.0,11.0,77,0.00,,,0.00,Wunderground v.1.15,2013-04-06 05:38:00,
2013-04-06 00:44:00,54.9,48.2,30.08,South,174,10.0,13.0,78,0.00,,,0.00,Wunderground v.1.15,2013-04-06 05:44:00,
2013-04-06 00:50:00,54.5,48.1,30.08,SSE,148,11.0,11.0,79,0.00,,,0.00,Wunderground v.1.15,2013-04-06 05:50:00,
2013-04-06 00:58:00,54.1,48.4,30.08,SE,146,9.0,15.0,81,0.00,,,0.00,Wunderground v.1.15,2013-04-06 05:58:00,
2013-04-06 01:04:00,54.0,48.3,30.08,SSE,148,10.0,15.0,81,0.00,,,0.00,Wunderground v.1.15,2013-04-06 06:04:00,
2013-04-06 01:10:00,53.9,48.5,30.08,SSE,164,11.0,19.0,82,0.00,,,0.00,Wunderground v.1.15,2013-04-06 06:10:00,
2013-04-06 01:16:00,53.9,48.5,30.07,SE,145,12.0,19.0,82,0.00,,,0.00,Wunderground v.1.15,2013-04-06 06:16:00,
2013-04-06 01:22:00,53.8,48.4,30.07,SE,144,12.0,13.0,82,0.00,,,0.00,Wunderground v.1.15,2013-04-06 06:22:00,
2013-04-06 01:28:00,53.6,48.2,30.07,SSE,150,11.0,13.0,82,0.00,,,0.00,Wunderground v.1.15,2013-04-06 06:28:00,
2013-04-06 01:34:00,53.6,47.9,30.06,SSE,155,12.0,14.0,81,0.00,,,0.00,Wunderground v.1.15,2013-04-06 06:34:00,
2013-04-06 01:40:00,53.6,47.9,30.06,SSE,162,12.0,12.0,81,0.00,,,0.00,Wunderground v.1.15,2013-04-06 06:40:00,
2013-04-06 01:46:00,53.5,47.8,30.06,SE,141,12.0,16.0,81,0.00,,,0.00,Wunderground v.1.15,2013-04-06 06:46:00,
2013-04-06 01:52:00,53.3,47.6,30.06,SE,135,12.0,13.0,81,0.00,,,0.00,Wunderground v.1.15,2013-04-06 06:52:00,
2013-04-06 01:58:00,53.2,47.5,30.06,SSE,148,12.0,15.0,81,0.00,,,0.00,Wunderground v.1.15,2013-04-06 06:58:00,
2013-04-06 02:04:00,53.0,47.7,30.05,SSE,150,11.0,12.0,82,0.00,,,0.00,Wunderground v.1.15,2013-04-06 07:04:00,
2013-04-06 02:10:00,52.8,47.5,30.05,SSE,155,11.0,11.0,82,0.00,,,0.00,Wunderground v.1.15,2013-04-06 07:10:00,
2013-04-06 02:18:00,52.5,47.2,30.05,SSE,165,11.0,11.0,82,0.00,,,0.00,Wunderground v.1.15,2013-04-06 07:18:00,
2013-04-06 02:24:00,52.4,47.1,30.04,SSE,165,11.0,17.0,82,0.00,,,0.00,Wunderground v.1.15,2013-04-06 07:24:00,
2013-04-06 02:30:00,52.4,47.1,30.04,SSE,167,12.0,13.0,82,0.00,,,0.00,Wunderground v.1.15,2013-04-06 07:30:00,
2013-04-06 02:36:00,52.2,46.9,30.04,SSE,155,12.0,14.0,82,0.00,,,0.00,Wunderground v.1.15,2013-04-06 07:36:00,
2013-04-06 02:42:00,52.1,46.8,30.03,SSE,151,12.0,17.0,82,0.00,,,0.00,Wunderground v.1.15,2013-04-06 07:42:00,
2013-04-06 02:48:00,52.1,46.8,30.03,SE,142,13.0,17.0,82,0.00,,,0.00,Wunderground v.1.15,2013-04-06 07:48:00,
2013-04-06 02:54:00,52.0,46.7,30.03,South,172,14.0,19.0,82,0.00,,,0.00,Wunderground v.1.15,2013-04-06 07:54:00,
2013-04-06 03:00:00,51.9,46.6,30.03,SE,133,14.0,14.0,82,0.00,,,0.00,Wunderground v.1.15,2013-04-06 08:00:00,
2013-04-06 03:06:00,51.8,46.2,30.03,South,185,13.0,17.0,81,0.00,,,0.00,Wunderground v.1.15,2013-04-06 08:06:00,
2013-04-06 03:12:00,51.6,46.0,30.03,SE,139,11.0,12.0,81,0.00,,,0.00,Wunderground v.1.15,2013-04-06 08:12:00,
2013-04-06 03:18:00,51.6,46.0,30.03,SE,138,10.0,12.0,81,0.00,,,0.00,Wunderground v.1.15,2013-04-06 08:18:00,
2013-04-06 03:24:00,51.5,45.9,30.02,SSE,165,11.0,16.0,81,0.00,,,0.00,Wunderground v.1.15,2013-04-06 08:24:00,
2013-04-06 03:30:00,51.4,45.8,30.02,South,172,11.0,11.0,81,0.00,,,0.00,Wunderground v.1.15,2013-04-06 08:30:00,
2013-04-06 03:36:00,51.3,45.7,30.01,South,170,12.0,15.0,81,0.00,,,0.00,Wunderground v.1.15,2013-04-06 08:36:00,
2013-04-06 03:42:00,51.2,45.6,30.01,SSE,148,13.0,15.0,81,0.00,,,0.00,Wunderground v.1.15,2013-04-06 08:42:00,
2013-04-06 03:48:00,51.1,45.5,30.01,South,179,12.0,15.0,81,0.00,,,0.00,Wunderground v.1.15,2013-04-06 08:48:00,
2013-04-06 03:54:00,50.9,45.3,30.01,South,169,11.0,12.0,81,0.00,,,0.00,Wunderground v.1.15,2013-04-06 08:54:00,
2013-04-06 04:00:00,50.8,45.5,30.01,SSE,156,10.0,13.0,82,0.00,,,0.00,Wunderground v.1.15,2013-04-06 09:00:00,
2013-04-06 04:08:00,50.7,45.4,30.01,SE,134,11.0,16.0,82,0.00,,,0.00,Wunderground v.1.15,2013-04-06 09:08:00,
2013-04-06 04:14:00,50.7,45.4,30.01,SSE,147,9.0,11.0,82,0.00,,,0.00,Wunderground v.1.15,2013-04-06 09:14:00,
2013-04-06 04:20:00,50.7,45.4,30.01,South,180,10.0,12.0,82,0.00,,,0.00,Wunderground v.1.15,2013-04-06 09:20:00,
2013-04-06 04:26:00,50.8,45.5,30.01,SE,125,11.0,22.0,82,0.00,,,0.00,Wunderground v.1.15,2013-04-06 09:26:00,
2013-04-06 04:32:00,50.6,45.6,30.01,SSE,167,13.0,16.0,83,0.00,,,0.00,Wunderground v.1.15,2013-04-06 09:32:00,
2013-04-06 04:38:00,50.6,45.9,30.01,East,97,15.0,21.0,84,0.00,,,0.00,Wunderground v.1.15,2013-04-06 09:38:00,
2013-04-06 04:44:00,50.4,45.7,30.00,SSE,168,15.0,15.0,84,0.00,,,0.00,Wunderground v.1.15,2013-04-06 09:44:00,
2013-04-06 04:50:00,50.1,45.8,30.00,SSW,210,15.0,15.0,85,0.00,,,0.00,Wunderground v.1.15,2013-04-06 09:50:00,
2013-04-06 04:56:00,49.9,46.2,30.00,SSE,150,15.0,19.0,87,0.00,,,0.00,Wunderground v.1.15,2013-04-06 09:56:00,
2013-04-06 05:02:00,49.8,46.1,30.00,South,186,16.0,22.0,87,0.00,,,0.00,Wunderground v.1.15,2013-04-06 10:02:00,
2013-04-06 05:08:00,49.6,46.2,30.00,SSW,193,16.0,22.0,88,0.00,,,0.00,Wunderground v.1.15,2013-04-06 10:08:00,
2013-04-06 05:14:00,49.5,46.4,30.00,South,191,14.0,20.0,89,0.00,,,0.00,Wunderground v.1.15,2013-04-06 10:14:00,
2013-04-06 05:20:00,49.3,46.5,30.00,South,169,14.0,14.0,90,0.00,,,0.00,Wunderground v.1.15,2013-04-06 10:20:00,
2013-04-06 05:26:00,49.2,46.4,30.00,SE,144,14.0,15.0,90,0.00,,,0.00,Wunderground v.1.15,2013-04-06 10:26:00,
2013-04-06 05:32:00,49.0,46.5,29.99,SSE,165,13.0,14.0,91,0.00,,,0.00,Wunderground v.1.15,2013-04-06 10:32:00,
2013-04-06 05:38:00,48.9,46.7,30.00,South,188,13.0,20.0,92,0.00,,,0.00,Wunderground v.1.15,2013-04-06 10:38:00,
2013-04-06 05:44:00,48.8,46.9,30.01,South,187,14.0,23.0,93,0.00,,,0.00,Wunderground v.1.15,2013-04-06 10:44:00,
2013-04-06 05:50:00,48.8,46.9,30.00,SSE,160,14.0,14.0,93,0.00,,,0.00,Wunderground v.1.15,2013-04-06 10:50:00,
2013-04-06 05:56:00,48.8,47.2,30.00,SSE,156,13.0,14.0,94,0.00,,,0.00,Wunderground v.1.15,2013-04-06 10:56:00,
2013-04-06 06:02:00,48.9,47.2,30.00,SSE,162,12.0,16.0,94,0.00,,,0.00,Wunderground v.1.15,2013-04-06 11:02:00,
2013-04-06 06:08:00,49.2,47.8,30.00,South,172,13.0,19.0,95,0.00,,,0.00,Wunderground v.1.15,2013-04-06 11:08:00,
2013-04-06 06:14:00,49.4,48.0,30.00,SSE,160,14.0,17.0,95,0.00,,,0.00,Wunderground v.1.15,2013-04-06 11:14:00,
2013-04-06 06:20:00,49.6,48.2,30.00,SSE,153,13.0,15.0,95,0.00,,,0.00,Wunderground v.1.15,2013-04-06 11:20:00,
2013-04-06 06:26:00,49.7,48.3,30.00,South,172,12.0,18.0,95,0.00,,,0.00,Wunderground v.1.15,2013-04-06 11:26:00,
2013-04-06 06:34:00,49.9,48.5,30.01,SSE,165,12.0,18.0,95,0.00,,,0.00,Wunderground v.1.15,2013-04-06 11:34:00,
2013-04-06 06:36:00,49.9,48.5,30.00,SSE,148,13.0,18.0,95,0.00,,,0.00,Wunderground v.1.15,2013-04-06 11:36:00,
2013-04-06 06:42:00,50.0,48.6,30.00,South,177,12.0,16.0,95,0.00,,,0.00,Wunderground v.1.15,2013-04-06 11:42:00,
2013-04-06 06:48:00,50.1,48.7,30.00,South,184,11.0,16.0,95,0.00,,,0.00,Wunderground v.1.15,2013-04-06 11:48:00,
2013-04-06 06:54:00,50.1,48.7,30.00,SE,141,12.0,14.0,95,0.00,,,0.00,Wunderground v.1.15,2013-04-06 11:54:00,
2013-04-06 07:00:00,50.3,48.6,30.00,South,169,13.0,13.0,94,0.00,,,0.00,Wunderground v.1.15,2013-04-06 12:00:00,
2013-04-06 07:06:00,50.3,48.6,30.00,SSE,162,13.0,20.0,94,0.00,,,0.00,Wunderground v.1.15,2013-04-06 12:06:00,
2013-04-06 07:12:00,50.4,48.7,30.00,South,184,14.0,20.0,94,0.00,,,0.00,Wunderground v.1.15,2013-04-06 12:12:00,
2013-04-06 07:18:00,50.4,48.7,30.00,South,180,12.0,20.0,94,0.00,,,0.00,Wunderground v.1.15,2013-04-06 12:18:00,
2013-04-06 07:24:00,50.5,48.8,30.00,SSE,162,12.0,20.0,94,0.00,,,0.00,Wunderground v.1.15,2013-04-06 12:24:00,
2013-04-06 07:30:00,50.5,48.8,30.00,SSE,147,12.0,12.0,94,0.00,,,0.00,Wunderground v.1.15,2013-04-06 12:30:00,
2013-04-06 07:36:00,50.6,48.9,30.01,South,169,11.0,20.0,94,0.00,,,0.00,Wunderground v.1.15,2013-04-06 12:36:00,
2013-04-06 07:42:00,50.6,48.9,30.01,SW,214,11.0,12.0,94,0.00,,,0.00,Wunderground v.1.15,2013-04-06 12:42:00,
2013-04-06 07:48:00,50.8,49.1,30.01,SSW,212,12.0,20.0,94,0.00,,,0.00,Wunderground v.1.15,2013-04-06 12:48:00,
2013-04-06 07:54:00,50.8,49.1,30.02,SSE,165,11.0,20.0,94,0.00,,,0.00,Wunderground v.1.15,2013-04-06 12:54:00,
2013-04-06 08:00:00,51.0,49.3,30.02,SE,145,11.0,20.0,94,0.00,,,0.00,Wunderground v.1.15,2013-04-06 13:00:00,
2013-04-06 08:06:00,51.1,49.4,30.01,SE,128,13.0,20.0,94,0.00,,,0.00,Wunderground v.1.15,2013-04-06 13:06:00,
2013-04-06 08:12:00,51.4,49.7,30.02,SSE,162,15.0,15.0,94,0.00,,,0.00,Wunderground v.1.15,2013-04-06 13:12:00,
2013-04-06 08:18:00,51.6,49.6,30.01,SSE,165,15.0,20.0,93,0.00,,,0.00,Wunderground v.1.15,2013-04-06 13:18:00,
2013-04-06 08:24:00,51.9,49.9,30.01,South,186,14.0,21.0,93,0.00,,,0.00,Wunderground v.1.15,2013-04-06 13:24:00,
2013-04-06 08:30:00,52.1,50.1,30.01,SSW,201,14.0,20.0,93,0.00,,,0.00,Wunderground v.1.15,2013-04-06 13:30:00,
2013-04-06 08:36:00,52.4,50.1,30.02,SSE,167,15.0,20.0,92,0.00,,,0.00,Wunderground v.1.15,2013-04-06 13:36:00,
2013-04-06 08:42:00,52.6,50.3,30.03,South,190,14.0,20.0,92,0.00,,,0.00,Wunderground v.1.15,2013-04-06 13:42:00,
2013-04-06 08:48:00,52.9,50.3,30.02,SSE,164,15.0,20.0,91,0.00,,,0.00,Wunderground v.1.15,2013-04-06 13:48:00,
2013-04-06 08:54:00,53.2,50.6,30.02,ESE,118,14.0,20.0,91,0.00,,,0.00,Wunderground v.1.15,2013-04-06 13:54:00,
2013-04-06 09:00:00,53.4,50.8,30.02,SSE,152,16.0,16.0,91,0.00,,,0.00,Wunderground v.1.15,2013-04-06 14:00:00,
2013-04-06 09:06:00,53.8,51.2,30.02,SSE,158,16.0,20.0,91,0.00,,,0.00,Wunderground v.1.15,2013-04-06 14:06:00,
2013-04-06 09:12:00,54.3,51.4,30.02,South,187,16.0,20.0,90,0.00,,,0.00,Wunderground v.1.15,2013-04-06 14:12:00,
2013-04-06 09:18:00,54.8,51.6,30.02,SSE,157,16.0,20.0,89,0.00,,,0.00,Wunderground v.1.15,2013-04-06 14:18:00,
2013-04-06 09:24:00,54.9,51.7,30.01,SE,137,16.0,20.0,89,0.00,,,0.00,Wunderground v.1.15,2013-04-06 14:24:00,
2013-04-06 09:30:00,55.0,51.5,30.01,South,181,17.0,17.0,88,0.00,,,0.00,Wunderground v.1.15,2013-04-06 14:30:00,
2013-04-06 09:36:00,55.4,51.9,30.01,SSE,165,17.0,20.0,88,0.00,,,0.00,Wunderground v.1.15,2013-04-06 14:36:00,
2013-04-06 09:42:00,56.1,52.0,30.02,SSE,155,18.0,20.0,86,0.00,,,0.00,Wunderground v.1.15,2013-04-06 14:42:00,
2013-04-06 09:48:00,57.0,52.5,30.01,SW,224,17.0,20.0,85,0.00,,,0.00,Wunderground v.1.15,2013-04-06 14:48:00,
2013-04-06 09:54:00,57.1,52.0,30.01,East,97,18.0,24.0,83,0.00,,,0.00,Wunderground v.1.15,2013-04-06 14:54:00,
2013-04-06 10:00:00,57.3,52.2,30.01,SSE,162,19.0,25.0,83,0.00,,,0.00,Wunderground v.1.15,2013-04-06 15:00:00,
2013-04-06 10:06:00,57.8,52.3,30.01,SSE,158,19.0,25.0,82,0.00,,,0.00,Wunderground v.1.15,2013-04-06 15:06:00,
2013-04-06 10:12:00,58.4,52.6,30.01,SSW,193,18.0,20.0,81,0.00,,,0.00,Wunderground v.1.15,2013-04-06 15:12:00,
2013-04-06 10:18:00,58.8,53.0,30.01,SSE,151,17.0,20.0,81,0.00,,,0.00,Wunderground v.1.15,2013-04-06 15:18:00,
2013-04-06 10:24:00,59.9,53.4,30.01,SW,226,15.0,20.0,79,0.00,,,0.00,Wunderground v.1.15,2013-04-06 15:24:00,
2013-04-06 10:30:00,59.9,53.4,30.00,SSE,162,15.0,15.0,79,0.00,,,0.00,Wunderground v.1.15,2013-04-06 15:30:00,
2013-04-06 10:36:00,59.7,53.2,30.01,South,179,17.0,20.0,79,0.00,,,0.00,Wunderground v.1.15,2013-04-06 15:36:00,
2013-04-06 10:42:00,60.4,53.5,30.01,WSW,241,17.0,20.0,78,0.00,,,0.00,Wunderground v.1.15,2013-04-06 15:42:00,
2013-04-06 10:48:00,61.2,52.8,30.01,SE,138,16.0,20.0,74,0.00,,,0.00,Wunderground v.1.15,2013-04-06 15:48:00,
2013-04-06 10:54:00,61.3,52.9,30.01,SW,214,17.0,20.0,74,0.00,,,0.00,Wunderground v.1.15,2013-04-06 15:54:00,
2013-04-06 11:00:00,62.1,53.3,30.01,ESE,121,15.0,15.0,73,0.00,,,0.00,Wunderground v.1.15,2013-04-06 16:00:00,
2013-04-06 11:06:00,62.4,52.9,30.02,SSE,167,15.0,20.0,71,0.00,,,0.00,Wunderground v.1.15,2013-04-06 16:06:00,
2013-04-06 11:12:00,62.9,54.1,30.01,SSW,197,15.0,20.0,73,0.00,,,0.00,Wunderground v.1.15,2013-04-06 16:12:00,
2013-04-06 11:18:00,63.4,52.7,30.01,SE,138,14.0,20.0,68,0.00,,,0.00,Wunderground v.1.15,2013-04-06 16:18:00,
2013-04-06 11:24:00,63.4,52.7,30.01,SSE,162,16.0,23.0,68,0.00,,,0.00,Wunderground v.1.15,2013-04-06 16:24:00,
2013-04-06 11:30:00,63.8,53.0,30.00,SE,139,17.0,21.0,68,0.00,,,0.00,Wunderground v.1.15,2013-04-06 16:30:00,
2013-04-06 11:36:00,64.3,52.7,30.00,SSE,165,15.0,21.0,66,0.00,,,0.00,Wunderground v.1.15,2013-04-06 16:36:00,
2013-04-06 11:42:00,64.4,52.4,30.00,South,172,17.0,21.0,65,0.00,,,0.00,Wunderground v.1.15,2013-04-06 16:42:00,
2013-04-06 11:48:00,64.9,52.8,29.99,SSE,153,17.0,21.0,65,0.00,,,0.00,Wunderground v.1.15,2013-04-06 16:48:00,
2013-04-06 11:54:00,65.4,52.0,29.99,SSE,167,17.0,20.0,62,0.00,,,0.00,Wunderground v.1.15,2013-04-06 16:54:00,
2013-04-06 12:00:00,66.3,52.9,30.00,South,177,16.0,20.0,62,0.00,,,0.00,Wunderground v.1.15,2013-04-06 17:00:00,
2013-04-06 12:06:00,66.8,52.5,30.00,South,179,15.0,23.0,60,0.00,,,0.00,Wunderground v.1.15,2013-04-06 17:06:00,
2013-04-06 12:12:00,66.8,52.0,29.99,South,176,17.0,20.0,59,0.00,,,0.00,Wunderground v.1.15,2013-04-06 17:12:00,
2013-04-06 12:18:00,67.3,52.5,29.99,South,169,16.0,20.0,59,0.00,,,0.00,Wunderground v.1.15,2013-04-06 17:18:00,
2013-04-06 12:24:00,67.9,53.0,29.99,SSE,166,14.0,20.0,59,0.00,,,0.00,Wunderground v.1.15,2013-04-06 17:24:00,
2013-04-06 12:30:00,67.8,52.5,29.99,SW,232,16.0,20.0,58,0.00,,,0.00,Wunderground v.1.15,2013-04-06 17:30:00,
2013-04-06 12:36:00,68.4,53.0,29.99,SSE,149,16.0,20.0,58,0.00,,,0.00,Wunderground v.1.15,2013-04-06 17:36:00,
2013-04-06 12:42:00,68.7,52.8,29.99,East,101,15.0,21.0,57,0.00,,,0.00,Wunderground v.1.15,2013-04-06 17:42:00,
2013-04-06 12:48:00,68.4,53.0,29.98,SSE,153,17.0,21.0,58,0.00,,,0.00,Wunderground v.1.15,2013-04-06 17:48:00,
2013-04-06 12:54:00,68.6,53.2,29.98,SE,136,17.0,20.0,58,0.00,,,0.00,Wunderground v.1.15,2013-04-06 17:54:00,
2013-04-06 13:00:00,68.9,53.5,29.98,SSE,167,18.0,20.0,58,0.00,,,0.00,Wunderground v.1.15,2013-04-06 18:00:00,
2013-04-06 13:06:00,68.8,52.9,29.97,SSE,155,18.0,20.0,57,0.00,,,0.00,Wunderground v.1.15,2013-04-06 18:06:00,
2013-04-06 13:12:00,69.4,54.0,29.98,South,172,16.0,18.0,58,0.00,,,0.00,Wunderground v.1.15,2013-04-06 18:12:00,
2013-04-06 13:18:00,69.6,54.2,29.98,SSE,148,15.0,20.0,58,0.00,,,0.00,Wunderground v.1.15,2013-04-06 18:18:00,
2013-04-06 13:24:00,69.8,54.4,29.97,SSE,149,16.0,21.0,58,0.00,,,0.00,Wunderground v.1.15,2013-04-06 18:24:00,
2013-04-06 13:30:00,69.9,54.9,29.97,WSW,249,16.0,16.0,59,0.00,,,0.00,Wunderground v.1.15,2013-04-06 18:30:00,
2013-04-06 13:36:00,70.0,55.0,29.97,SE,129,15.0,22.0,59,0.00,,,0.00,Wunderground v.1.15,2013-04-06 18:36:00,
2013-04-06 13:42:00,70.6,56.0,29.97,SSE,167,14.0,23.0,60,0.00,,,0.00,Wunderground v.1.15,2013-04-06 18:42:00,
2013-04-06 13:48:00,71.1,55.6,29.96,South,179,14.0,23.0,58,0.00,,,0.00,Wunderground v.1.15,2013-04-06 18:48:00,
2013-04-06 13:54:00,71.1,55.6,29.96,South,170,15.0,20.0,58,0.00,,,0.00,Wunderground v.1.15,2013-04-06 18:54:00,
2013-04-06 14:00:00,71.3,56.7,29.95,SSE,156,15.0,15.0,60,0.00,,,0.00,Wunderground v.1.15,2013-04-06 19:00:00,
2013-04-06 14:08:00,71.8,56.7,29.95,SSE,153,15.0,20.0,59,0.00,,,0.00,Wunderground v.1.15,2013-04-06 19:08:00,
2013-04-06 14:14:00,72.2,56.1,29.94,SSE,156,14.0,20.0,57,0.00,,,0.00,Wunderground v.1.15,2013-04-06 19:14:00,
2013-04-06 14:20:00,72.4,56.8,29.94,SSE,167,14.0,21.0,58,0.00,,,0.00,Wunderground v.1.15,2013-04-06 19:20:00,
2013-04-06 14:26:00,72.4,56.3,29.93,ESE,120,14.0,21.0,57,0.00,,,0.00,Wunderground v.1.15,2013-04-06 19:26:00,
2013-04-06 14:32:00,72.2,56.1,29.93,South,184,16.0,16.0,57,0.00,,,0.00,Wunderground v.1.15,2013-04-06 19:32:00,
2013-04-06 14:38:00,72.4,56.3,29.93,SSW,208,16.0,23.0,57,0.00,,,0.00,Wunderground v.1.15,2013-04-06 19:38:00,
2013-04-06 14:44:00,72.9,56.8,29.92,SSE,159,16.0,20.0,57,0.00,,,0.00,Wunderground v.1.15,2013-04-06 19:44:00,
2013-04-06 14:50:00,73.2,56.6,29.92,South,177,15.0,15.0,56,0.00,,,0.00,Wunderground v.1.15,2013-04-06 19:50:00,
2013-04-06 14:56:00,73.4,56.7,29.91,SE,146,14.0,20.0,56,0.00,,,0.00,Wunderground v.1.15,2013-04-06 19:56:00,
2013-04-06 15:02:00,73.5,56.3,29.91,SSE,150,14.0,23.0,55,0.00,,,0.00,Wunderground v.1.15,2013-04-06 20:02:00,
2013-04-06 15:08:00,73.7,56.5,29.91,South,174,15.0,23.0,55,0.00,,,0.00,Wunderground v.1.15,2013-04-06 20:08:00,
2013-04-06 15:14:00,73.5,56.8,29.92,South,184,15.0,21.0,56,0.00,,,0.00,Wunderground v.1.15,2013-04-06 20:14:00,
2013-04-06 15:20:00,73.6,56.9,29.91,SSW,204,15.0,15.0,56,0.00,,,0.00,Wunderground v.1.15,2013-04-06 20:20:00,
2013-04-06 15:26:00,74.3,57.1,29.90,SSE,153,14.0,20.0,55,0.00,,,0.00,Wunderground v.1.15,2013-04-06 20:26:00,
2013-04-06 15:32:00,74.1,56.9,29.90,SSW,208,14.0,20.0,55,0.00,,,0.00,Wunderground v.1.15,2013-04-06 20:32:00,
2013-04-06 15:38:00,74.0,57.8,29.89,SE,127,14.0,21.0,57,0.00,,,0.00,Wunderground v.1.15,2013-04-06 20:38:00,
2013-04-06 15:44:00,74.6,57.4,29.90,SSE,165,14.0,22.0,55,0.00,,,0.00,Wunderground v.1.15,2013-04-06 20:44:00,
2013-04-06 15:50:00,74.1,57.4,29.90,South,179,15.0,25.0,56,0.00,,,0.00,Wunderground v.1.15,2013-04-06 20:50:00,
2013-04-06 15:56:00,74.1,57.9,29.89,South,173,15.0,25.0,57,0.00,,,0.00,Wunderground v.1.15,2013-04-06 20:56:00,
2013-04-06 16:02:00,74.3,58.1,29.89,South,186,16.0,24.0,57,0.00,,,0.00,Wunderground v.1.15,2013-04-06 21:02:00,
2013-04-06 16:08:00,74.7,58.0,29.89,SSW,204,15.0,24.0,56,0.00,,,0.00,Wunderground v.1.15,2013-04-06 21:08:00,
2013-04-06 16:14:00,74.8,58.1,29.89,SE,141,13.0,20.0,56,0.00,,,0.00,Wunderground v.1.15,2013-04-06 21:14:00,
2013-04-06 16:20:00,75.1,58.3,29.89,SSE,161,13.0,20.0,56,0.00,,,0.00,Wunderground v.1.15,2013-04-06 21:20:00,
2013-04-06 16:26:00,74.8,58.1,29.88,SSE,153,13.0,21.0,56,0.00,,,0.00,Wunderground v.1.15,2013-04-06 21:26:00,
2013-04-06 16:32:00,74.7,58.0,29.88,SSE,156,15.0,25.0,56,0.00,,,0.00,Wunderground v.1.15,2013-04-06 21:32:00,
2013-04-06 16:38:00,74.7,58.0,29.88,SSE,148,16.0,25.0,56,0.00,,,0.00,Wunderground v.1.15,2013-04-06 21:38:00,
2013-04-06 16:44:00,75.0,57.7,29.88,South,170,15.0,21.0,55,0.00,,,0.00,Wunderground v.1.15,2013-04-06 21:44:00,
2013-04-06 16:50:00,75.0,58.2,29.87,South,173,14.0,20.0,56,0.00,,,0.00,Wunderground v.1.15,2013-04-06 21:50:00,
2013-04-06 16:56:00,75.7,58.4,29.87,SSW,210,12.0,20.0,55,0.00,,,0.00,Wunderground v.1.15,2013-04-06 21:56:00,
2013-04-06 17:02:00,75.6,57.8,29.87,South,173,13.0,22.0,54,0.00,,,0.00,Wunderground v.1.15,2013-04-06 22:02:00,
2013-04-06 17:08:00,75.3,57.5,29.87,SSE,163,14.0,22.0,54,0.00,,,0.00,Wunderground v.1.15,2013-04-06 22:08:00,
2013-04-06 17:14:00,75.4,57.6,29.87,SSE,148,13.0,20.0,54,0.00,,,0.00,Wunderground v.1.15,2013-04-06 22:14:00,
2013-04-06 17:20:00,75.8,58.5,29.87,SSE,158,12.0,20.0,55,0.00,,,0.00,Wunderground v.1.15,2013-04-06 22:20:00,
2013-04-06 17:26:00,75.8,58.0,29.87,SE,132,12.0,20.0,54,0.00,,,0.00,Wunderground v.1.15,2013-04-06 22:26:00,
2013-04-06 17:32:00,75.6,57.8,29.87,South,190,13.0,20.0,54,0.00,,,0.00,Wunderground v.1.15,2013-04-06 22:32:00,
2013-04-06 17:38:00,75.5,58.2,29.87,SSE,160,13.0,20.0,55,0.00,,,0.00,Wunderground v.1.15,2013-04-06 22:38:00,
2013-04-06 17:44:00,75.4,57.6,29.87,South,177,13.0,20.0,54,0.00,,,0.00,Wunderground v.1.15,2013-04-06 22:44:00,
2013-04-06 17:50:00,75.3,58.0,29.86,South,179,14.0,14.0,55,0.00,,,0.00,Wunderground v.1.15,2013-04-06 22:50:00,
2013-04-06 17:56:00,75.3,58.0,29.86,SSE,148,12.0,20.0,55,0.00,,,0.00,Wunderground v.1.15,2013-04-06 22:56:00,
2013-04-06 18:02:00,75.5,58.2,29.86,SSE,165,11.0,20.0,55,0.00,,,0.00,Wunderground v.1.15,2013-04-06 23:02:00,
2013-04-06 18:08:00,75.6,58.3,29.86,SE,133,11.0,20.0,55,0.00,,,0.00,Wunderground v.1.15,2013-04-06 23:08:00,
2013-04-06 18:14:00,75.4,58.1,29.86,SSE,149,11.0,20.0,55,0.00,,,0.00,Wunderground v.1.15,2013-04-06 23:14:00,
2013-04-06 18:20:00,75.1,58.3,29.86,South,176,12.0,12.0,56,0.00,,,0.00,Wunderground v.1.15,2013-04-06 23:20:00,
2013-04-06 18:26:00,75.0,58.2,29.86,SE,134,12.0,20.0,56,0.00,,,0.00,Wunderground v.1.15,2013-04-06 23:26:00,
2013-04-06 18:32:00,74.9,58.6,29.86,SSW,197,12.0,13.0,57,0.00,,,0.00,Wunderground v.1.15,2013-04-06 23:32:00,
2013-04-06 18:38:00,74.6,58.4,29.85,SSE,148,12.0,20.0,57,0.00,,,0.00,Wunderground v.1.15,2013-04-06 23:38:00,
2013-04-06 18:44:00,74.5,58.8,29.86,South,176,11.0,20.0,58,0.00,,,0.00,Wunderground v.1.15,2013-04-06 23:44:00,
2013-04-06 18:50:00,74.2,58.5,29.86,SSE,158,11.0,20.0,58,0.00,,,0.00,Wunderground v.1.15,2013-04-06 23:50:00,
2013-04-06 18:56:00,74.1,58.4,29.86,South,181,11.0,20.0,58,0.00,,,0.00,Wunderground v.1.15,2013-04-06 23:56:00,
2013-04-06 19:02:00,73.9,58.2,29.86,South,189,12.0,20.0,58,0.00,,,0.00,Wunderground v.1.15,2013-04-07 00:02:00,
2013-04-06 19:08:00,73.7,58.5,29.86,SSE,167,12.0,20.0,59,0.00,,,0.00,Wunderground v.1.15,2013-04-07 00:08:00,
2013-04-06 19:14:00,73.5,58.3,29.86,ESE,123,10.0,20.0,59,0.00,,,0.00,Wunderground v.1.15,2013-04-07 00:14:00,
2013-04-06 19:20:00,73.2,58.5,29.86,SSE,153,9.0,9.0,60,0.00,,,0.00,Wunderground v.1.15,2013-04-07 00:20:00,
2013-04-06 19:26:00,72.9,58.2,29.86,SE,141,9.0,20.0,60,0.00,,,0.00,Wunderground v.1.15,2013-04-07 00:26:00,
2013-04-06 19:32:00,72.6,57.9,29.86,South,181,9.0,20.0,60,0.00,,,0.00,Wunderground v.1.15,2013-04-07 00:32:00,
2013-04-06 19:38:00,72.3,58.1,29.86,SSW,193,9.0,20.0,61,0.00,,,0.00,Wunderground v.1.15,2013-04-07 00:38:00,
2013-04-06 19:44:00,71.9,58.2,29.86,SSE,148,8.0,20.0,62,0.00,,,0.00,Wunderground v.1.15,2013-04-07 00:44:00,
2013-04-06 19:50:00,71.5,57.8,29.87,SSE,163,10.0,20.0,62,0.00,,,0.00,Wunderground v.1.15,2013-04-07 00:50:00,
2013-04-06 19:56:00,71.1,57.9,29.87,SSE,168,10.0,20.0,63,0.00,,,0.00,Wunderground v.1.15,2013-04-07 00:56:00,
2013-04-06 20:02:00,70.7,57.9,29.87,SE,146,8.0,20.0,64,0.00,,,0.00,Wunderground v.1.15,2013-04-07 01:02:00,
2013-04-06 20:08:00,70.4,58.1,29.87,SE,145,8.0,20.0,65,0.00,,,0.00,Wunderground v.1.15,2013-04-07 01:08:00,
2013-04-06 20:14:00,70.2,57.9,29.86,South,176,8.0,20.0,65,0.00,,,0.00,Wunderground v.1.15,2013-04-07 01:14:00,
2013-04-06 20:20:00,70.0,57.7,29.87,SE,137,8.0,8.0,65,0.00,,,0.00,Wunderground v.1.15,2013-04-07 01:20:00,
2013-04-06 20:26:00,69.8,57.9,29.87,SSE,158,8.0,20.0,66,0.00,,,0.00,Wunderground v.1.15,2013-04-07 01:26:00,
2013-04-06 20:32:00,69.5,57.6,29.87,South,188,8.0,20.0,66,0.00,,,0.00,Wunderground v.1.15,2013-04-07 01:32:00,
2013-04-06 20:38:00,69.3,57.9,29.87,SSW,207,9.0,20.0,67,0.00,,,0.00,Wunderground v.1.15,2013-04-07 01:38:00,
2013-04-06 20:44:00,69.1,57.7,29.87,SSE,155,9.0,20.0,67,0.00,,,0.00,Wunderground v.1.15,2013-04-07 01:44:00,
2013-04-06 20:50:00,68.9,57.5,29.87,SE,134,9.0,20.0,67,0.00,,,0.00,Wunderground v.1.15,2013-04-07 01:50:00,
2013-04-06 20:56:00,68.6,57.6,29.87,ESE,109,8.0,20.0,68,0.00,,,0.00,Wunderground v.1.15,2013-04-07 01:56:00,
2013-04-06 21:02:00,68.0,57.4,29.87,SSE,153,8.0,20.0,69,0.00,,,0.00,Wunderground v.1.15,2013-04-07 02:02:00,
2013-04-06 21:08:00,68.0,57.4,29.87,South,184,8.0,20.0,69,0.00,,,0.00,Wunderground v.1.15,2013-04-07 02:08:00,
2013-04-06 21:30:00,67.8,57.3,29.88,SSE,148,8.0,8.0,69,0.00,,,0.00,Wunderground v.1.15,2013-04-07 02:30:00,
2013-04-06 21:36:00,67.5,57.4,29.88,SSE,158,8.0,20.0,70,0.00,,,0.00,Wunderground v.1.15,2013-04-07 02:36:00,
2013-04-06 21:44:00,67.3,57.2,29.88,SSE,159,10.0,20.0,70,0.00,,,0.00,Wunderground v.1.15,2013-04-07 02:44:00,
2013-04-06 21:54:00,66.7,57.4,29.89,SSE,148,10.0,20.0,72,0.00,,,0.00,Wunderground v.1.15,2013-04-07 02:54:00,
2013-04-06 22:00:00,66.4,57.1,29.89,SE,138,10.0,20.0,72,0.00,,,0.00,Wunderground v.1.15,2013-04-07 03:00:00,
2013-04-06 22:06:00,66.3,57.4,29.89,SSE,161,11.0,20.0,73,0.00,,,0.00,Wunderground v.1.15,2013-04-07 03:06:00,
2013-04-06 22:12:00,65.9,57.4,29.89,SSE,151,11.0,15.0,74,0.00,,,0.00,Wunderground v.1.15,2013-04-07 03:12:00,
2013-04-06 22:18:00,65.6,57.1,29.89,South,184,10.0,20.0,74,0.00,,,0.00,Wunderground v.1.15,2013-04-07 03:18:00,
2013-04-06 22:24:00,65.3,57.2,29.89,SE,136,10.0,20.0,75,0.00,,,0.00,Wunderground v.1.15,2013-04-07 03:24:00,
2013-04-06 22:30:00,65.1,57.0,29.89,SSE,165,11.0,20.0,75,0.00,,,0.00,Wunderground v.1.15,2013-04-07 03:30:00,
2013-04-06 22:36:00,65.0,56.9,29.88,SE,134,13.0,20.0,75,0.00,,,0.00,Wunderground v.1.15,2013-04-07 03:36:00,
2013-04-06 22:42:00,64.8,57.1,29.87,SSW,198,14.0,17.0,76,0.00,,,0.00,Wunderground v.1.15,2013-04-07 03:42:00,
2013-04-06 22:48:00,64.5,56.4,29.88,SE,143,14.0,20.0,75,0.00,,,0.00,Wunderground v.1.15,2013-04-07 03:48:00,
2013-04-06 22:54:00,64.2,56.5,29.88,SE,134,14.0,20.0,76,0.00,,,0.00,Wunderground v.1.15,2013-04-07 03:54:00,
2013-04-06 23:00:00,63.9,56.2,29.88,SSE,158,14.0,20.0,76,0.00,,,0.00,Wunderground v.1.15,2013-04-07 04:00:00,
2013-04-06 23:02:00,63.7,56.4,29.88,South,169,14.0,20.0,77,0.00,,,0.00,Wunderground v.1.15,2013-04-07 04:02:00,
2013-04-06 23:04:00,63.6,56.3,29.88,SSE,155,15.0,20.0,77,0.00,,,0.00,Wunderground v.1.15,2013-04-07 04:04:00,
2013-04-06 23:10:00,63.3,56.3,29.88,SSE,151,16.0,20.0,78,0.00,,,0.00,Wunderground v.1.15,2013-04-07 04:10:00,
2013-04-06 23:14:00,63.1,56.5,29.88,SSE,148,16.0,20.0,79,0.00,,,0.00,Wunderground v.1.15,2013-04-07 04:14:00,
2013-04-06 23:20:00,62.8,56.5,29.88,SE,141,15.0,23.0,80,0.00,,,0.00,Wunderground v.1.15,2013-04-07 04:20:00,
2013-04-06 23:26:00,62.5,56.6,29.88,SE,125,15.0,23.0,81,0.00,,,0.00,Wunderground v.1.15,2013-04-07 04:26:00,
2013-04-06 23:32:00,62.2,56.6,29.88,SE,138,16.0,20.0,82,0.00,,,0.00,Wunderground v.1.15,2013-04-07 04:32:00,
2013-04-06 23:38:00,61.9,56.7,29.88,SE,145,16.0,20.0,83,0.00,,,0.00,Wunderground v.1.15,2013-04-07 04:38:00,
2013-04-06 23:44:00,61.7,56.8,29.88,SSE,150,15.0,20.0,84,0.00,,,0.00,Wunderground v.1.15,2013-04-07 04:44:00,
2013-04-06 23:50:00,61.4,56.5,29.88,South,187,15.0,15.0,84,0.00,,,0.00,Wunderground v.1.15,2013-04-07 04:50:00,
2013-04-06 23:56:00,61.2,56.7,29.88,SE,139,14.0,20.0,85,0.00,,,0.00,Wunderground v.1.15,2013-04-07 04:56:00,